Weather History for Broome Airport, Western Australia

Change the Weather History Date:

Tuesday, December 3, 2013

  Actual Average Record
Temperature  
Mean Temperature 84 °F -  
Max Temperature 90 °F 93 °F - ()
Min Temperature 79 °F 80 °F - ()
Cooling Degree Days 20    
Growing Degree Days 34 (Base 50)    
Moisture  
Dew Point 76 °F    
Average Humidity 74    
Maximum Humidity 89    
Minimum Humidity 52    
Precipitation  
Precipitation 0.00 in 0.08 in - ()
Sea Level Pressure  
Sea Level Pressure 29.73 in    
Wind  
Wind Speed 10 mph ()    
Max Wind Speed 16 mph    
Max Gust Speed -    
Visibility 7.8 miles    
Events      
T = Trace of Precipitation, MM = Missing Value Source: Averaged Metar Reports

Daily Weather History Graph

Daily Weather History Graph

Search for Another Location

Airport:

Trip Planner

Search our weather history database for the weather conditions in past years. The results will help you decide how hot, cold, wet, or windy it might be!

Date:

Astronomy

Dec. 03, 2013 Rise Set
Actual Time 5:06 AM AWST 6:15 PM AWST
Civil Twilight 4:42 AM AWST 6:38 PM AWST
Nautical Twilight 4:14 AM AWST 7:07 PM AWST
Astronomical Twilight 3:45 AM AWST 7:36 PM AWST
Moon 5:09 AM AWST (12/3) 6:32 PM AWST (12/3)
Length of Visible Light 13h 56m
Length of Day
13h 08m
New Moon, 0% of the Moon is Illuminated
Dec 3
New Moon
Dec 9
First Quarter
Dec 17
Full
Dec 25
Last Quarter
Jan 1
New

Hourly Weather History & Observations

Time (AWST) Temp. Heat Index Dew Point Humidity Pressure Visibility Wind Dir Wind Speed Gust Speed Precip Events Conditions
12:00 AM 82 °F - 75 °F 73% 29.76 in - WSW 10.4 mph - -  
12:00 AM 82.4 °F 89.5 °F 75.2 °F 79% 29.74 in 6.2 mi WSW 10.4 mph - N/A   Unknown
12:30 AM 82.4 °F 89.5 °F 75.2 °F 79% 29.74 in 6.2 mi WSW 10.4 mph - N/A   Unknown
1:00 AM 82.4 °F 89.5 °F 75.2 °F 79% 29.74 in 6.2 mi WSW 10.4 mph - N/A   Unknown
1:30 AM 82.4 °F 89.5 °F 75.2 °F 79% 29.71 in 6.2 mi WSW 10.4 mph - N/A   Unknown
2:00 AM 82 °F - 75 °F 73% 29.72 in - WSW 11.5 mph - -  
2:00 AM 82.4 °F 89.5 °F 75.2 °F 79% 29.71 in 6.2 mi WSW 11.5 mph - N/A   Unknown
2:30 AM 82.4 °F 89.5 °F 75.2 °F 79% 29.71 in 6.2 mi SW 10.4 mph - N/A   Unknown
3:00 AM 82 °F - 75 °F 73% 29.72 in - WSW 9.2 mph - -  
3:00 AM 82.4 °F 89.5 °F 75.2 °F 79% 29.71 in 6.2 mi WSW 9.2 mph - N/A   Unknown
3:30 AM 82.4 °F 89.5 °F 75.2 °F 79% 29.71 in 6.2 mi WSW 8.1 mph - N/A   Unknown
4:00 AM 82.4 °F 89.5 °F 75.2 °F 79% 29.74 in 6.2 mi SW 8.1 mph - N/A   Unknown
4:30 AM 80.6 °F 86.2 °F 75.2 °F 84% 29.74 in 6.2 mi Calm Calm - N/A   Unknown
5:00 AM 80 °F - 75 °F 80% 29.77 in - North 4.6 mph - -  
5:00 AM 78.8 °F - 75.2 °F 89% 29.77 in 6.2 mi North 4.6 mph - N/A   Unknown
5:30 AM 80.6 °F 86.2 °F 75.2 °F 84% 29.77 in - Calm Calm - N/A   Clear
6:00 AM 82 °F - 75 °F 75% 29.78 in 16 mi NNW 1.2 mph - -   Haze
6:00 AM 82.4 °F 89.5 °F 75.2 °F 79% 29.77 in 6.2 mi NNW 1.2 mph - N/A   Partly Cloudy
6:30 AM 84.2 °F 90.9 °F 73.4 °F 70% 29.77 in 6.2 mi WSW 5.8 mph - N/A   Partly Cloudy
7:00 AM 86.0 °F 93.4 °F 73.4 °F 66% 29.77 in 6.2 mi SW 5.8 mph - N/A   Partly Cloudy
7:30 AM 86.0 °F 93.4 °F 73.4 °F 66% 29.77 in 6.2 mi West 9.2 mph - N/A   Partly Cloudy
8:00 AM 87 °F - 73 °F 56% 29.78 in - WSW 10.4 mph - -  
8:00 AM 86.0 °F 93.4 °F 73.4 °F 66% 29.77 in 6.2 mi WSW 10.4 mph - N/A   Partly Cloudy
8:30 AM 87.8 °F 95.6 °F 73.4 °F 62% 29.80 in - West 9.2 mph - N/A   Clear
9:00 AM 87 °F - 74 °F 58% 29.80 in 19 mi West 11.5 mph - -   Haze
9:00 AM 87.8 °F 95.6 °F 73.4 °F 62% 29.80 in - West 11.5 mph - N/A   Clear
9:30 AM 87.8 °F 99.7 °F 77.0 °F 70% 29.77 in - West 13.8 mph - N/A   Clear
10:00 AM 87.8 °F 102.5 °F 78.8 °F 75% 29.77 in - WSW 12.7 mph - N/A   Clear
10:30 AM 87.8 °F 102.5 °F 78.8 °F 75% 29.77 in - West 12.7 mph - N/A   Clear
11:00 AM 90 °F - 82 °F 72% 29.77 in - West 15.0 mph - -  
11:00 AM 89.6 °F 111.1 °F 82.4 °F 79% 29.77 in 6.2 mi West 15.0 mph - N/A   Unknown
11:30 AM 89.6 °F 111.1 °F 82.4 °F 79% 29.77 in - West 15.0 mph - N/A   Clear
12:00 PM 88 °F - 82 °F 77% 29.76 in 19 mi West 13.8 mph - -   Haze
12:00 PM 87.8 °F 108.2 °F 82.4 °F 84% 29.74 in - West 13.8 mph - N/A   Clear
12:30 PM 87.8 °F 97.6 °F 75.2 °F 66% 29.74 in - West 15.0 mph - N/A   Clear
1:00 PM 87.8 °F 95.6 °F 73.4 °F 62% 29.74 in 6.2 mi West 13.8 mph - N/A   Mostly Cloudy
1:30 PM 87.8 °F 95.6 °F 73.4 °F 62% 29.71 in 6.2 mi West 15.0 mph - N/A   Mostly Cloudy
2:00 PM 89 °F - 74 °F 52% 29.72 in - West 13.8 mph - -  
2:00 PM 89.6 °F 98.2 °F 73.4 °F 59% 29.71 in 6.2 mi West 13.8 mph - N/A   Mostly Cloudy
2:30 PM 87.8 °F 95.6 °F 73.4 °F 62% 29.71 in 6.2 mi West 15.0 mph - N/A   Mostly Cloudy
3:00 PM 88 °F - 74 °F 56% 29.70 in 19 mi West 15.0 mph - -   Haze
3:00 PM 87.8 °F 97.6 °F 75.2 °F 66% 29.68 in 6.2 mi West 15.0 mph - N/A   Scattered Clouds
3:30 PM 86.0 °F 95.1 °F 75.2 °F 70% 29.68 in 6.2 mi West 16.1 mph - N/A   Scattered Clouds
4:00 PM 86.0 °F 95.1 °F 75.2 °F 70% 29.68 in 6.2 mi West 15.0 mph - N/A   Scattered Clouds
4:30 PM 86.0 °F 95.1 °F 75.2 °F 70% 29.68 in 6.2 mi West 15.0 mph - N/A   Partly Cloudy
5:00 PM 85 °F - 75 °F 66% 29.68 in - West 15.0 mph - -  
5:00 PM 86.0 °F 95.1 °F 75.2 °F 70% 29.68 in 6.2 mi West 15.0 mph - N/A   Partly Cloudy
5:30 PM 84.2 °F 92.3 °F 75.2 °F 74% 29.68 in 6.2 mi West 13.8 mph - N/A   Partly Cloudy
6:00 PM 84 °F - 76 °F 70% 29.70 in 19 mi West 12.7 mph - -   Haze
6:00 PM 84.2 °F 92.3 °F 75.2 °F 74% 29.68 in 6.2 mi West 12.7 mph - N/A   Partly Cloudy
6:30 PM 84.2 °F 94.1 °F 77.0 °F 79% 29.71 in 6.2 mi West 11.5 mph - N/A   Unknown
7:00 PM 82.4 °F 90.9 °F 77.0 °F 84% 29.71 in 6.2 mi West 12.7 mph - N/A   Partly Cloudy
7:30 PM 82.4 °F 90.9 °F 77.0 °F 84% 29.71 in 6.2 mi West 12.7 mph - N/A   Scattered Clouds
8:00 PM 83 °F - 76 °F 75% 29.72 in - West 12.7 mph - -  
8:00 PM 82.4 °F 90.9 °F 77.0 °F 84% 29.71 in 6.2 mi West 12.7 mph - N/A   Scattered Clouds
8:30 PM 82.4 °F 90.9 °F 77.0 °F 84% 29.71 in 6.2 mi West 12.7 mph - N/A   Scattered Clouds
9:00 PM 83 °F - 77 °F 76% 29.73 in 16 mi West 11.5 mph - -   Haze
9:00 PM 82.4 °F 90.9 °F 77.0 °F 84% 29.71 in 6.2 mi West 11.5 mph - N/A   Partly Cloudy
9:30 PM 82.4 °F 90.9 °F 77.0 °F 84% 29.74 in 6.2 mi West 11.5 mph - N/A   Unknown
10:00 PM 82.4 °F 90.9 °F 77.0 °F 84% 29.74 in 6.2 mi West 10.4 mph - N/A   Scattered Clouds
10:30 PM 82.4 °F 90.9 °F 77.0 °F 84% 29.71 in 6.2 mi WNW 11.5 mph - N/A   Scattered Clouds
11:00 PM 82 °F - 77 °F 80% 29.72 in - West 11.5 mph - -  
11:00 PM 82.4 °F 90.9 °F 77.0 °F 84% 29.71 in 6.2 mi West 11.5 mph - N/A   Scattered Clouds
11:30 PM 82.4 °F 90.9 °F 77.0 °F 84% 29.71 in 6.2 mi WNW 12.7 mph - N/A   Scattered Clouds